Regional Weather Roundup
Issued by NWS

Home | Current Version | Previous Version | Text Only | Print | Product List | Glossary On
Versions: 1 2 3 4 5 6 7 8 9 10 11 12 13 14 15 16 17 18 19 20 21 22 23 24 25 26 27 28 29 30 31 32 33 34 35 36 37 38 39 40 41 42 43 44 45 46 47 48 49 50
000
ASUS43 KLMK 230110
RWRKY
KENTUCKY REGIONAL WEATHER ROUNDUP
NATIONAL WEATHER SERVICE LOUISVILLE KY
900 PM EDT TUE AUG 22 2017

NOTE "FAIR" INDICATES FEW OR NO CLOUDS BELOW 12,000 FEET
WITH NO SIGNIFICANT WEATHER AND/OR OBSTRUCTIONS TO VISIBILITY.

KYZ001>023-026-027-061>063-070>075-230200-
WESTERN AND SOUTH CENTRAL KENTUCKY

CITY           SKY/WX    TMP DP  RH WIND       PRES   REMARKS
PADUCAH        CLOUDY    77  67  71 NW3       29.97R
HENDERSON      NOT AVBL
OWENSBORO      CLOUDY    75  73  93 CALM      29.96R
HOPKINSVILLE   CLOUDY    73  72  97 NW3       29.97R
BOWLING GREEN  CLOUDY    75  73  93 W5        29.97S
GLASGOW        CLOUDY    73  73 100 CALM      29.96S
$$

KYZ024-025-028>034-038-045-046-053-230200-
NORTH CENTRAL KENTUCKY

CITY           SKY/WX    TMP DP  RH WIND       PRES   REMARKS
LOUISVILLE/SDF MOCLDY    74  71  91 SW6       29.93S
LOUISVILLE/LOU MOCLDY    73  73 100 SW6       29.94S
FORT KNOX      CLOUDY    71  71 100 SW3       29.94R
$$

KYZ035>037-039>044-047>052-055>060-089>105-230200-
NORTHEAST KENTUCKY

CITY           SKY/WX    TMP DP  RH WIND       PRES   REMARKS
LEXINGTON      MOCLDY    72  70  93 W3        29.97R
COVINGTON      MOCLDY    72  71  97 SW3       29.92S
FRANKFORT      CLOUDY    72  68  87 CALM      29.94R
$$

KYZ054-064>069-076>088-106>120-230200-
SOUTHEAST KENTUCKY

CITY           SKY/WX    TMP DP  RH WIND       PRES   REMARKS
JACKSON        MOCLDY    73  71  93 VRB3      29.99R
LONDON         MOCLDY    77  73  87 CALM      29.97R
SOMERSET       CLOUDY    77  70  78 CALM      29.95S
MIDDLESBORO    PTCLDY    73  73 100 CALM      29.99R
MONTICELLO     PTCLDY    77  72  84 W14       29.96R
$$





USA.gov is the U.S. government's official web portal to all federal, state and local government web resources and services.